Location: Willow Grove Area
(40.1625°N, 75.1113°W)
Time: 16:02:04
(UTC-05:00)

Tiangong 2 - Visible Passes

Search period start: 19 January 2018 00:00
Search period end: 29 January 2018 00:00
Orbit: 384 x 390 km, 42.8° (Epoch: 18 January)

Date Brightness Start Highest point End Pass type
(mag) Time Alt. Az. Time Alt. Az. Time Alt. Az.
19 Jan 1.5 05:48:16 33° SW 05:49:26 57° SSE 05:52:35 10° ENE visible
20 Jan 4.0 04:52:38 18° E 04:52:38 18° E 04:53:45 10° E visible
20 Jan 1.1 06:24:55 14° W 06:27:31 65° NNW 06:30:43 10° ENE visible
21 Jan 1.3 05:29:09 67° ENE 05:29:09 67° ENE 05:31:59 10° ENE visible
22 Jan 1.4 06:05:33 28° WNW 06:06:56 53° N 06:10:05 10° ENE visible
23 Jan 3.0 05:09:36 28° ENE 05:09:36 28° ENE 05:11:19 10° ENE visible
23 Jan 1.5 06:42:01 10° WNW 06:45:10 53° N 06:48:19 10° E visible
24 Jan 1.5 05:45:53 45° NNW 05:46:21 50° N 05:49:29 10° ENE visible
25 Jan 4.1 04:49:52 16° ENE 04:49:52 16° ENE 04:50:40 10° ENE visible
25 Jan 1.2 06:22:07 16° WNW 06:24:32 67° NNE 06:27:43 10° E visible
26 Jan 1.7 05:26:05 50° NE 05:26:05 50° NE 05:28:52 10° E visible
27 Jan 1.0 06:02:19 28° WNW 06:03:50 86° SSW 06:07:01 10° ESE visible
28 Jan 2.9 05:06:19 32° E 05:06:19 32° E 05:08:14 10° E visible
28 Jan 2.3 06:38:50 10° W 06:41:43 31° SSW 06:44:35 10° SE visible
